This demonstration page uses our WeatherBlox Daily Observations layout. Learn more.

Left ArrowRight Arrow

44.89941, -97.11507

Hourly Observations for June 21, 2018

Temp ( °F °C ) Dew Point ( °F °C ) Humidity (%) Winds ( mph kmh ) Pressure ( in mb ) Visibility ( mi km ) Precip ( " mm )
12:53 am 00:53 Cloudy with Light Rain 63 17.2 62 16.7 97 97 W 9 15 29.88 1012 10 16 0.01 0.25
1:53 am 01:53 Cloudy with Light Rain 63 17.2 62 16.7 97 97 W 8 13 29.86 1011 9 14 0.02 0.51
2:53 am 02:53 Cloudy 63 17.2 62 16.7 97 97 NW 7 11 29.85 1011 10 16 0.01 0.25
3:53 am 03:53 Cloudy 62 16.7 60 15.6 93 93 N 6 9 29.84 1011 10 16 0.00 0.00
4:53 am 04:53 Cloudy 62 16.7 59 15 90 90 N 7 11 29.85 1011 10 16 0.00 0.00
5:53 am 05:53 Cloudy 62 16.7 60 15.6 93 93 N 7 11 29.86 1011 10 16 0.00 0.00
6:53 am 06:53 Mostly Cloudy 63 17.2 60 15.6 90 90 N 6 9 29.88 1012 10 16 0.00 0.00
7:53 am 07:53 Partly Cloudy 64 17.8 60 15.6 87 87 NNE 8 13 29.89 1012 10 16 0.00 0.00
8:53 am 08:53 Mostly Sunny 66 18.9 61 16.1 84 84 NNE 8 13 29.89 1012 10 16 0.00 0.00
9:53 am 09:53 Sunny 68 20 61 16.1 78 78 NNE 9 15 29.90 1013 10 16 0.00 0.00
10:53 am 10:53 Sunny 73 22.8 62 16.7 69 69 NE 13 20 29.91 1013 10 16 0.00 0.00
11:53 am 11:53 Sunny 74 23.3 62 16.7 67 67 NE 13 20 29.92 1013 10 16 0.00 0.00
12:53 pm 12:53 Sunny 75 23.9 62 16.7 64 64 NNE 13 20 29.92 1013 10 16 0.00 0.00
1:53 pm 13:53 Sunny 76 24.4 58 14.4 54 54 NE 13 20 29.91 1013 10 16 0.00 0.00
2:53 pm 14:53 Sunny 77 25 58 14.4 52 52 ENE 10 17 29.91 1013 10 16 0.00 0.00
3:53 pm 15:53 Sunny 78 25.6 59 15 52 52 NE 10 17 29.91 1013 10 16 0.00 0.00
4:53 pm 16:53 Sunny 78 25.6 57 13.9 48 48 ENE 8 13 29.91 1013 10 16 0.00 0.00
5:53 pm 17:53 Sunny 77 25 58 14.4 52 52 E 5 7 29.91 1013 10 16 0.00 0.00
6:53 pm 18:53 Sunny 77 25 60 15.6 56 56 NE 7 11 29.91 1013 10 16 0.00 0.00
7:53 pm 19:53 Sunny 75 23.9 61 16.1 62 62 E 6 9 29.91 1013 10 16 0.00 0.00
8:53 pm 20:53 Sunny 73 22.8 60 15.6 64 64 SE 3 6 29.91 1013 10 16 0.00 0.00
9:53 pm 21:53 Clear 69 20.6 62 16.7 78 78 SE 3 6 29.91 1013 10 16 0.00 0.00
10:53 pm 22:53 Clear 65 18.3 62 16.7 90 90 SSW 3 6 29.92 1013 10 16 0.00 0.00
11:53 pm 23:53 Clear 65 18.3 62 16.7 90 90 Calm 29.91 1013 10 16 0.00 0.00

Powered by AerisWeather